#Datum;Uhrzeit;WR;Pac;DaySum;Status;WR;Pac;DaySum;Status;Pdc1;Udc;Temp;WR;Pac;DaySum;Status;Pdc1;Udc;Temp;WR;Pac;DaySum;Status;Pdc1;Udc;Temp;WR;Pac;DaySum;Status;Pdc1;Pdc2;Udc1;Udc2;Temp;WR;Pac;DaySum;Status;Pdc1;Pdc2;Udc1;Udc2;Temp;WR;Pac;DaySum;Status;Pdc1;Udc;Temp;WR;Pac;DaySum;Status;Pdc1;Udc;Temp;WR;Pac;DaySum;Status;Pdc1;Udc;Temp
27.05.18;23:55:00;1;197;7849;0;2;0;31454;0;0;0;0;3;0;20731;0;0;0;0;4;0;29179;0;0;0;0;5;0;69085;0;0;0;0;0;0;6;0;52230;0;0;0;0;0;0;7;0;37933;0;0;0;0;8;0;38061;0;0;0;0;9;0;21071;0;0;0;0
27.05.18;23:50:00;1;198;7833;0;2;0;31454;0;0;0;0;3;0;20731;0;0;0;0;4;0;29179;0;0;0;0;5;0;69085;0;0;0;0;0;0;6;0;52230;0;0;0;0;0;0;7;0;37933;0;0;0;0;8;0;38061;0;0;0;0;9;0;21071;0;0;0;0
27.05.18;23:45:00;1;198;7816;0;2;0;31454;0;0;0;0;3;0;20731;0;0;0;0;4;0;29179;0;0;0;0;5;0;69085;0;0;0;0;0;0;6;0;52230;0;0;0;0;0;0;7;0;37933;0;0;0;0;8;0;38061;0;0;0;0;9;0;21071;0;0;0;0
27.05.18;23:40:00;1;199;7799;0;2;0;31454;0;0;0;0;3;0;20731;0;0;0;0;4;0;29179;0;0;0;0;5;0;69085;0;0;0;0;0;0;6;0;52230;0;0;0;0;0;0;7;0;37933;0;0;0;0;8;0;38061;0;0;0;0;9;0;21071;0;0;0;0
27.05.18;23:35:00;1;200;7783;0;2;0;31454;0;0;0;0;3;0;20731;0;0;0;0;4;0;29179;0;0;0;0;5;0;69085;0;0;0;0;0;0;6;0;52230;0;0;0;0;0;0;7;0;37933;0;0;0;0;8;0;38061;0;0;0;0;9;0;21071;0;0;0;0
27.05.18;23:30:00;1;230;7766;0;2;0;31454;0;0;0;0;3;0;20731;0;0;0;0;4;0;29179;0;0;0;0;5;0;69085;0;0;0;0;0;0;6;0;52230;0;0;0;0;0;0;7;0;37933;0;0;0;0;8;0;38061;0;0;0;0;9;0;21071;0;0;0;0
27.05.18;23:25:00;1;240;7747;0;2;0;31454;0;0;0;0;3;0;20731;0;0;0;0;4;0;29179;0;0;0;0;5;0;69085;0;0;0;0;0;0;6;0;52230;0;0;0;0;0;0;7;0;37933;0;0;0;0;8;0;38061;0;0;0;0;9;0;21071;0;0;0;0
27.05.18;23:20:00;1;272;7727;0;2;0;31454;0;0;0;0;3;0;20731;0;0;0;0;4;0;29179;0;0;0;0;5;0;69085;0;0;0;0;0;0;6;0;52230;0;0;0;0;0;0;7;0;37933;0;0;0;0;8;0;38061;0;0;0;0;9;0;21071;0;0;0;0
27.05.18;23:15:00;1;349;7703;0;2;0;31454;0;0;0;0;3;0;20731;0;0;0;0;4;0;29179;0;0;0;0;5;0;69085;0;0;0;0;0;0;6;0;52230;0;0;0;0;0;0;7;0;37933;0;0;0;0;8;0;38061;0;0;0;0;9;0;21071;0;0;0;0
27.05.18;23:10:00;1;261;7680;0;2;0;31454;0;0;0;0;3;0;20731;0;0;0;0;4;0;29179;0;0;0;0;5;0;69085;0;0;0;0;0;0;6;0;52230;0;0;0;0;0;0;7;0;37933;0;0;0;0;8;0;38061;0;0;0;0;9;0;21071;0;0;0;0
27.05.18;23:07:00;1;256;7667;0;2;0;31454;0;0;0;0;3;0;20731;0;0;0;0;4;0;29179;0;0;0;0;5;0;69085;0;0;0;0;0;0;6;0;52230;0;0;0;0;0;0;7;0;37933;0;0;0;0;8;0;38061;0;0;0;0;9;0;21071;0;0;0;0
27.05.18;23:00:00;1;296;7637;0;2;0;31454;0;0;0;0;3;0;20731;0;0;0;0;4;0;29179;0;0;0;0;5;0;69085;0;0;0;0;0;0;6;0;52230;0;0;0;0;0;0;7;0;37933;0;0;0;0;8;0;38061;0;0;0;0;9;0;21071;0;0;0;0
27.05.18;22:55:00;1;341;7612;0;2;0;31454;0;0;0;0;3;0;20731;0;0;0;0;4;0;29179;0;0;0;0;5;0;69085;2;0;0;0;0;0;6;0;52230;2;0;0;0;0;0;7;0;37933;0;0;0;0;8;0;38061;0;0;0;0;9;0;21071;0;0;0;0
27.05.18;22:50:00;1;347;7583;0;2;0;31454;0;0;0;0;3;0;20731;0;0;0;0;4;0;29179;0;0;0;0;5;0;69085;2;0;0;0;0;0;6;0;52230;2;0;0;0;0;0;7;0;37933;0;0;0;0;8;0;38061;0;0;0;0;9;0;21071;0;0;0;0
27.05.18;22:45:00;1;370;7554;0;2;0;31454;0;0;0;0;3;0;20731;0;0;0;0;4;0;29179;0;0;0;0;5;0;69085;2;0;0;0;0;0;6;0;52230;2;0;0;0;0;0;7;0;37933;0;0;0;0;8;0;38061;0;0;0;0;9;0;21071;0;0;0;0
27.05.18;22:40:00;1;443;7522;0;2;0;31454;0;0;0;0;3;0;20731;0;0;0;0;4;0;29179;0;0;0;0;5;0;69085;2;0;0;0;0;0;6;0;52230;2;0;0;0;0;0;7;0;37933;0;0;0;0;8;0;38061;0;0;0;0;9;0;21071;0;0;0;0
27.05.18;22:35:00;1;315;7486;0;2;0;31454;0;0;0;0;3;0;20731;0;0;0;0;4;0;29179;0;0;0;0;5;0;69085;2;0;0;0;0;0;6;0;52230;2;0;0;0;0;0;7;0;37933;0;0;0;0;8;0;38061;0;0;0;0;9;0;21071;0;0;0;0
27.05.18;22:30:00;1;235;7460;0;2;0;31454;0;0;0;0;3;0;20731;0;0;0;0;4;0;29179;0;0;0;0;5;0;69085;2;0;0;0;0;0;6;0;52230;2;0;0;0;0;0;7;0;37933;0;0;0;0;8;0;38061;0;0;0;0;9;0;21071;0;0;0;0
27.05.18;22:25:00;1;276;7441;0;2;0;31454;0;0;0;0;3;0;20731;0;0;0;0;4;0;29179;0;0;0;0;5;0;69085;2;0;0;0;0;0;6;0;52230;2;0;0;0;0;0;7;0;37933;0;0;0;0;8;0;38061;0;0;0;0;9;0;21071;0;0;0;0
27.05.18;22:20:00;1;240;7423;0;2;0;31454;0;0;0;0;3;0;20731;0;0;0;0;4;0;29179;0;0;0;0;5;0;69085;2;0;0;0;0;0;6;0;52230;2;0;0;0;0;0;7;0;37933;0;0;0;0;8;0;38061;0;0;0;0;9;0;21071;0;0;0;0
27.05.18;22:15:00;1;258;7403;0;2;0;31454;0;0;0;0;3;0;20731;0;0;0;0;4;0;29179;0;0;0;0;5;0;69085;2;0;0;0;0;0;6;0;52230;2;0;0;0;0;0;7;0;37933;0;0;0;0;8;0;38061;0;0;0;0;9;0;21071;0;0;0;0
27.05.18;22:10:00;1;259;7381;0;2;0;31454;0;0;0;0;3;0;20731;0;0;0;0;4;0;29179;0;0;0;0;5;0;69085;2;0;0;0;0;0;6;0;52230;2;0;0;0;0;0;7;0;37933;0;0;0;0;8;0;38061;0;0;0;0;9;0;21071;0;0;0;0
27.05.18;22:05:00;1;275;7360;0;2;0;31454;0;0;0;0;3;0;20731;0;0;0;0;4;0;29179;0;0;0;0;5;0;69085;2;0;0;0;0;0;6;0;52230;2;0;0;0;0;0;7;0;37933;0;0;0;0;8;0;38061;0;0;0;0;9;0;21071;0;0;0;0
27.05.18;22:00:00;1;404;7336;0;2;0;31454;0;0;0;0;3;0;20731;0;0;0;0;4;0;29179;0;0;0;0;5;0;69085;2;0;0;0;0;0;6;0;52230;2;0;0;0;0;0;7;0;37933;0;0;0;0;8;0;38061;0;0;0;0;9;0;21071;0;0;0;0
27.05.18;21:55:00;1;273;7301;0;2;0;31454;0;0;0;0;3;0;20731;0;0;0;0;4;0;29179;0;0;0;0;5;0;69085;2;0;0;0;0;0;6;0;52230;2;0;0;0;0;0;7;0;37933;0;0;0;0;8;0;38061;0;0;0;0;9;0;21071;0;0;0;0
27.05.18;21:50:00;1;300;7278;0;2;0;31454;0;0;0;0;3;0;20731;0;0;0;0;4;0;29179;0;0;0;0;5;0;69085;2;0;0;0;0;0;6;0;52230;2;0;0;0;0;0;7;0;37933;0;0;0;0;8;0;38061;0;0;0;0;9;0;21071;0;0;0;0
27.05.18;21:45:00;1;308;7253;0;2;0;31454;0;0;0;0;3;0;20731;0;0;0;0;4;0;29179;0;0;0;0;5;0;69085;2;0;0;0;0;0;6;0;52230;2;0;0;0;0;0;7;0;37933;0;0;0;0;8;0;38061;0;0;0;0;9;0;21071;0;0;0;0
27.05.18;21:40:00;1;261;7227;0;2;0;31454;0;0;0;0;3;0;20731;0;0;0;0;4;0;29179;0;0;0;0;5;0;69085;2;0;0;0;0;0;6;0;52230;2;0;0;0;0;0;7;0;37933;0;0;0;0;8;0;38061;0;0;0;0;9;0;21071;0;0;0;0
27.05.18;21:35:00;1;192;7207;0;2;0;31454;0;0;0;0;3;0;20731;0;0;0;0;4;0;29179;0;0;0;0;5;0;69085;2;0;0;0;0;0;6;0;52230;2;0;0;0;0;0;7;0;37933;0;0;0;0;8;0;38061;0;0;0;0;9;0;21071;0;0;0;0
27.05.18;21:30:00;1;192;7191;0;2;0;31454;0;0;0;0;3;0;20731;0;0;0;0;4;0;29179;0;0;0;0;5;0;69085;2;0;0;0;0;0;6;0;52230;2;0;0;0;0;0;7;0;37933;0;0;0;0;8;0;38061;0;0;0;0;9;0;21071;0;0;0;0
27.05.18;21:25:00;1;193;7175;0;2;0;31454;0;0;0;0;3;0;20731;0;0;0;0;4;0;29179;0;0;0;0;5;0;69085;2;0;0;0;0;0;6;0;52230;2;0;0;0;0;0;7;0;37933;0;0;0;0;8;0;38061;0;0;0;0;9;0;21071;0;0;0;0
27.05.18;21:20:00;1;220;7159;0;2;0;31454;0;0;0;0;3;0;20731;0;0;36;4;4;0;29179;0;0;0;0;5;0;69085;2;0;0;0;0;0;6;0;52230;2;0;0;0;0;0;7;0;37933;0;0;0;0;8;0;38061;0;0;0;0;9;0;21071;0;0;0;0
27.05.18;21:15:00;1;270;7140;0;2;0;31454;0;0;127;15;3;0;20731;6;0;286;33;4;0;29179;0;0;0;0;5;0;69085;2;0;0;0;0;0;6;0;52230;2;0;0;0;0;0;7;0;37933;0;0;0;0;8;0;38061;0;0;0;0;9;0;21071;0;0;0;0
27.05.18;21:10:00;1;265;7117;0;2;0;31454;6;0;285;31;3;0;20731;6;0;326;33;4;0;29179;0;0;64;26;5;0;69085;2;0;0;0;0;0;6;0;52230;2;0;0;0;0;2;7;0;37933;0;0;0;0;8;0;38061;0;0;0;0;9;0;21071;0;0;0;0
27.05.18;21:05:00;1;270;7095;0;2;0;31454;6;0;309;31;3;0;20731;6;0;375;33;4;0;29179;1;0;98;31;5;0;69085;2;0;1;101;101;13;6;0;52230;2;0;0;0;0;14;7;0;37933;0;0;0;0;8;0;38061;0;0;0;0;9;0;21071;0;0;0;0
27.05.18;21:00:00;1;279;7072;0;2;0;31454;6;0;332;32;3;0;20731;6;0;414;34;4;0;29179;1;0;127;32;5;0;69085;1;0;0;307;306;41;6;0;52230;23;5;3;179;393;40;7;0;37933;0;0;173;20;8;0;38061;0;0;176;20;9;0;21071;6;0;276;27
27.05.18;20:55:00;1;281;7049;0;2;0;31454;6;0;354;32;3;0;20731;4;2;428;34;4;0;29179;1;0;160;32;5;0;69085;26;0;0;370;375;42;6;0;52230;23;5;3;180;486;40;7;0;37933;6;0;307;31;8;0;38061;6;0;312;31;9;0;21071;6;0;327;28
27.05.18;20:50:00;1;212;7026;0;2;0;31454;6;0;372;33;3;3;20731;3;8;431;34;4;0;29179;1;0;185;32;5;11;69085;1;0;0;377;587;42;6;0;52230;23;5;2;181;524;41;7;0;37933;6;0;367;32;8;0;38061;6;0;371;31;9;0;21071;6;0;396;28
27.05.18;20:45:00;1;187;7007;0;2;0;31454;6;0;391;33;3;0;20731;6;6;474;35;4;0;29179;1;0;211;33;5;26;69084;1;0;5;386;614;43;6;0;52230;23;8;1;382;550;42;7;0;37933;6;2;411;32;8;0;38061;6;2;414;32;9;1;21071;4;1;447;28
27.05.18;20:40:00;1;187;6992;0;2;12;31454;6;23;388;34;3;2;20731;6;7;497;35;4;1;29179;3;1;204;33;5;89;69081;4;5;22;357;566;44;6;7;52230;8;12;7;509;516;42;7;0;37933;6;4;442;32;8;2;38061;6;4;443;32;9;3;21071;3;6;463;29
27.05.18;20:35:00;1;187;6976;0;2;55;31453;4;90;363;34;3;5;20731;6;12;503;35;4;13;29179;3;13;198;33;5;124;69074;4;23;40;357;566;44;6;50;52229;4;21;15;295;270;43;7;8;37933;3;20;427;33;8;8;38061;3;19;430;32;9;2;21071;6;6;497;29
27.05.18;20:30:00;1;187;6960;0;2;89;31448;4;128;361;35;3;43;20730;6;72;433;36;4;32;29178;3;33;197;34;5;163;69063;4;49;58;357;566;44;6;72;52225;4;34;24;296;271;43;7;49;37932;4;83;389;33;8;44;38060;4;81;402;33;9;4;21071;6;8;519;29
27.05.18;20:25:00;1;187;6944;0;2;121;31441;4;159;359;35;3;69;20727;4;106;442;36;4;58;29175;3;60;197;34;5;207;69049;4;73;76;357;566;44;6;91;52218;4;48;35;296;271;44;7;77;37928;4;112;373;33;8;71;38057;4;109;384;33;9;14;21070;6;24;492;29
27.05.18;20:20:00;1;194;6929;0;2;147;31431;4;188;359;35;3;73;20721;4;125;436;37;4;76;29170;3;79;199;34;5;244;69032;4;91;92;357;566;44;6;109;52211;4;57;44;296;271;44;7;104;37921;4;138;392;33;8;104;38051;4;135;382;33;9;40;21069;6;61;410;30
27.05.18;20:15:00;1;230;6912;0;2;181;31419;4;222;364;36;3;109;20715;4;147;456;37;4;101;29164;3;105;209;34;5;285;69012;4;113;112;357;566;44;6;124;52202;4;67;57;295;271;44;7;131;37913;4;169;393;33;8;127;38042;4;163;376;33;9;64;21066;4;94;452;30
27.05.18;20:10:00;1;231;6893;0;2;232;31404;4;273;367;36;3;137;20706;4;181;482;37;4;135;29156;5;141;217;34;5;336;68988;4;142;139;357;566;44;6;146;52191;4;91;72;296;271;44;7;162;37902;4;198;391;33;8;158;38031;4;201;397;33;9;81;21061;4;112;459;30
27.05.18;20:05:00;1;232;6874;0;2;280;31385;4;325;376;36;3;168;20695;4;211;462;37;4;159;29144;5;166;214;35;5;379;68959;4;166;160;357;566;45;6;166;52179;4;94;77;296;271;44;7;197;37889;4;235;410;34;8;193;38018;4;233;426;33;9;97;21054;4;132;486;31
27.05.18;20:00:00;1;188;6854;0;2;351;31361;4;398;377;36;3;210;20681;4;254;482;38;4;184;29131;5;191;221;35;5;398;68927;4;175;171;357;566;45;6;175;52165;4;111;90;296;271;44;7;217;37872;4;258;445;34;8;209;38002;4;251;453;33;9;107;21046;4;142;490;31
27.05.18;19:55:00;1;188;6838;0;2;368;31332;4;414;385;37;3;218;20663;4;264;497;38;4;184;29116;5;191;218;35;5;380;68894;4;165;160;357;566;45;6;164;52150;4;94;75;296;271;44;7;214;37854;4;252;450;34;8;203;37985;4;246;458;34;9;106;21037;4;140;492;31
27.05.18;19:50:00;1;240;6822;0;2;346;31301;4;392;384;37;3;210;20645;4;255;489;38;4;178;29100;5;185;214;35;5;354;68863;4;154;144;357;566;45;6;155;52136;4;85;69;296;271;45;7;206;37836;4;246;446;34;8;201;37968;4;243;440;34;9;95;21029;4;133;487;31
27.05.18;19:45:00;1;256;6802;0;2;289;31272;4;331;374;37;3;177;20628;4;217;483;38;4;173;29086;5;180;222;35;5;332;68833;4;144;134;357;566;45;6;149;52123;4;92;75;296;271;45;7;192;37819;4;237;434;34;8;183;37951;4;230;452;34;9;95;21021;4;129;487;31
27.05.18;19:40:00;1;257;6781;0;2;257;31248;4;301;370;37;3;150;20613;4;193;502;38;4;158;29071;5;164;222;36;5;312;68806;4;128;124;357;566;46;6;140;52111;4;90;76;296;271;45;7;180;37803;4;221;429;34;8;181;37936;4;220;426;34;9;93;21012;4;121;472;31
27.05.18;19:35:00;1;262;6759;0;2;251;31227;4;294;368;37;3;152;20600;4;194;489;38;4;160;29058;5;167;217;36;5;309;68780;4;127;123;357;566;46;6;137;52099;4;67;56;296;271;45;7;173;37788;4;215;442;34;8;178;37921;4;214;439;34;9;95;21005;4;123;471;32
27.05.18;19:30:00;1;319;6737;0;2;210;31206;4;251;363;38;3;122;20587;4;164;494;39;4;127;29045;5;132;218;36;5;271;68754;4;105;106;357;566;46;6;125;52088;4;70;57;296;270;45;7;143;37774;4;183;449;35;8;142;37906;4;181;452;34;9;76;20997;4;104;430;32
27.05.18;19:25:00;1;348;6710;0;2;166;31188;4;206;364;38;3;96;20577;4;137;488;39;4;89;29034;5;92;206;37;5;237;68731;4;84;91;357;566;46;6;107;52077;4;52;41;296;271;45;7;114;37761;4;154;440;35;8;113;37894;4;155;434;34;9;55;20990;4;79;368;32
27.05.18;19:20:00;1;348;6681;0;2;157;31174;4;196;363;38;3;89;20569;4;129;478;39;4;79;29026;3;82;199;37;5;212;68712;4;74;78;357;566;46;6;94;52069;4;56;39;296;271;46;7;97;37752;4;138;428;35;8;90;37884;4;138;438;35;9;15;20986;4;24;514;32
27.05.18;19:15:00;1;337;6652;0;2;120;31161;4;158;366;39;3;65;20562;4;101;428;39;4;61;29020;3;63;197;38;5;183;68694;4;58;67;357;566;47;6;83;52061;4;58;41;296;271;46;7;54;37744;4;104;444;35;8;56;37877;4;107;436;35;9;6;20984;6;11;528;32
27.05.18;19:10:00;1;261;6623;0;2;87;31151;4;123;355;39;3;21;20556;4;36;462;39;4;27;29015;3;28;197;38;5;167;68679;4;49;61;357;566;47;6;75;52054;4;46;32;296;271;46;7;38;37739;4;86;430;36;8;48;37872;4;84;370;35;9;5;20984;6;16;503;33
27.05.18;19:05:00;1;188;6603;0;2;78;31143;4;115;356;40;3;9;20554;6;15;527;40;4;26;29012;3;27;199;39;5;166;68665;4;47;59;357;566;47;6;73;52047;4;44;32;296;271;46;7;37;37736;4;90;429;36;8;49;37868;4;87;373;36;9;4;20983;6;10;528;33
27.05.18;19:00:00;1;188;6588;0;2;66;31137;4;104;362;41;3;5;20554;6;11;531;40;4;17;29010;3;18;199;39;5;156;68651;4;36;53;357;566;47;6;70;52041;4;56;40;296;271;46;7;42;37732;4;85;411;36;8;42;37864;4;75;359;36;9;5;20983;6;15;505;34
27.05.18;18:55:00;1;188;6572;0;2;71;31131;4;110;365;41;3;6;20553;4;14;532;41;4;20;29009;3;21;198;40;5;154;68638;4;36;50;357;566;48;6;69;52035;4;46;35;296;271;47;7;40;37729;4;85;414;37;8;41;37860;4;81;389;37;9;0;20982;6;0;564;35
27.05.18;18:50:00;1;188;6556;0;2;98;31125;4;137;356;42;3;52;20552;4;89;426;42;4;38;29007;3;39;197;41;5;200;68625;4;66;75;357;566;48;6;89;52029;4;47;35;296;271;47;7;61;37726;4;103;402;37;8;61;37857;4;104;401;37;9;11;20982;4;19;515;35
27.05.18;18:45:00;1;189;6540;0;2;139;31117;4;179;356;43;3;80;20548;4;120;450;43;4;84;29004;3;87;198;42;5;260;68608;4;95;100;357;566;48;6;114;52022;4;58;47;296;270;47;7;94;37720;4;132;404;38;8;94;37852;4;131;394;38;9;11;20981;3;16;533;36
27.05.18;18:40:00;1;216;6524;0;2;172;31106;4;214;359;44;3;100;20541;4;143;465;43;4;105;28997;5;109;206;42;5;295;68586;4;116;118;357;566;48;6;132;52012;4;78;61;296;271;47;7;118;37713;4;159;395;39;8;116;37844;4;152;373;38;9;60;20980;4;90;423;38
27.05.18;18:35:00;1;230;6507;0;2;202;31091;4;245;353;45;3;121;20533;4;160;453;44;4;123;28988;5;127;202;43;5;300;68561;4;118;117;357;566;49;6;135;52001;4;73;60;296;271;47;7;162;37703;4;200;396;39;8;158;37834;4;194;389;39;9;72;20975;4;102;442;38
27.05.18;18:30:00;1;231;6487;0;2;280;31075;4;325;354;46;3;169;20523;4;213;451;45;4;178;28978;5;185;205;44;5;348;68536;4;144;143;357;566;49;6;174;51990;4;107;90;323;301;48;7;222;37690;4;264;418;40;8;215;37821;4;253;390;39;9;98;20969;4;131;462;39
27.05.18;18:25:00;1;215;6468;0;2;378;31052;4;428;354;48;3;231;20509;4;277;457;46;4;248;28964;5;258;211;44;5;467;68507;4;208;196;359;579;49;6;345;51974;4;162;165;497;485;48;7;317;37671;4;362;414;40;8;304;37804;4;349;416;40;9;140;20961;4;178;472;40
27.05.18;18:20:00;1;189;6449;0;2;488;31020;4;543;354;49;3;307;20490;4;356;453;47;4;339;28943;5;353;210;45;5;648;68467;4;302;271;370;589;50;6;487;51944;4;260;254;501;499;48;7;425;37645;4;472;416;41;8;415;37779;4;460;405;41;9;203;20950;4;242;465;41
27.05.18;18:15:00;1;189;6434;0;2;520;30980;4;575;353;50;3;327;20465;4;373;440;47;4;367;28915;5;383;212;46;5;730;68413;4;345;317;363;594;50;6;553;51904;4;233;224;516;497;48;7;466;37610;4;512;406;41;8;460;37744;4;511;421;41;9;230;20933;4;269;469;42
27.05.18;18:10:00;1;189;6418;0;2;711;30937;4;775;356;52;3;441;20437;4;492;440;48;4;499;28884;5;519;210;46;5;942;68351;4;456;405;371;591;50;6;696;51857;4;378;366;514;494;49;7;626;37571;4;678;419;42;8;606;37706;4;662;421;42;9;309;20914;4;353;466;43
27.05.18;18:05:00;1;190;6402;0;2;1577;30878;4;1678;365;54;3;968;20401;4;1048;463;50;4;1283;28843;5;1337;215;47;5;2049;68268;4;1076;894;385;616;51;6;1544;51795;4;792;752;531;514;49;7;1494;37519;4;1584;423;42;8;1496;37656;4;1586;426;42;9;805;20888;4;871;475;44
27.05.18;18:00:00;1;190;6386;0;2;2136;30747;4;2258;356;55;3;1324;20321;4;1410;454;50;4;1720;28738;5;1792;214;48;5;2758;68090;4;1467;1216;384;621;51;6;2105;51661;4;1113;1052;540;520;49;7;1792;37402;4;1892;429;43;8;1779;37539;4;1876;430;43;9;961;20826;4;1032;474;45
27.05.18;17:55:00;1;191;6370;0;2;2572;30573;4;2716;359;56;3;1613;20213;4;1710;438;51;4;2110;28597;5;2197;217;48;5;3383;67859;4;1806;1500;389;619;51;6;2586;51486;4;1361;1318;541;527;49;7;2450;37256;4;2575;426;43;8;2459;37395;4;2584;431;43;9;1339;20748;4;1424;483;45
27.05.18;17:50:00;1;257;6354;0;2;2407;30361;4;2547;363;57;3;1517;20080;4;1608;443;51;4;2000;28423;5;2083;216;47;5;3328;67577;4;1776;1469;389;621;51;6;2528;51271;4;1324;1272;542;520;49;7;2391;37054;4;2516;434;44;8;2405;37192;4;2529;429;44;9;1311;20637;4;1396;481;46
27.05.18;17:45:00;1;304;6332;0;2;2680;30159;4;2828;358;57;3;1686;19953;4;1784;446;52;4;2205;28256;5;2297;216;47;5;3549;67300;4;1904;1572;393;627;51;6;2685;51059;4;1411;1355;538;523;49;7;2600;36853;4;2734;429;44;8;2619;36990;4;2763;434;44;9;1434;20527;4;1525;477;46
27.05.18;17:40:00;1;283;6307;0;2;2356;29936;4;2491;354;57;3;1481;19813;4;1571;439;52;4;1939;28074;5;2019;215;47;5;3100;67003;4;1654;1366;388;626;52;6;2373;50834;4;1250;1181;536;519;50;7;2331;36639;4;2450;429;44;8;2334;36774;4;2455;428;44;9;1275;20409;4;1358;472;46
27.05.18;17:35:00;1;319;6283;0;2;2270;29739;4;2402;355;58;3;1416;19689;4;1504;435;52;4;1833;27912;5;1910;212;47;5;2873;66746;4;1533;1261;385;621;52;6;2192;50639;4;1155;1120;534;511;50;7;2163;36444;4;2280;432;45;8;2167;36578;4;2279;421;45;9;1177;20302;4;1255;475;47
27.05.18;17:30:00;1;267;6262;0;2;3122;29549;4;3300;359;60;3;1986;19570;4;2095;428;53;4;2601;27758;5;2709;211;48;5;3912;66499;4;2113;1732;386;619;52;6;2960;50452;4;1542;1453;532;515;50;7;3028;36263;4;3187;416;45;8;3033;36397;4;3188;428;45;9;1656;20203;4;1755;466;48
27.05.18;17:25:00;1;256;6239;0;2;3373;29292;4;3562;353;60;3;2105;19406;4;2218;427;53;4;2807;27543;5;2924;211;48;5;4280;66173;4;2319;1898;387;619;52;6;3242;50206;4;1690;1627;532;513;50;7;3325;36013;4;3495;423;45;8;3330;36147;4;3495;426;45;9;1825;20067;4;1931;470;48
27.05.18;17:20:00;1;1129;6219;0;2;3403;29011;4;3594;357;60;3;2190;19231;4;2306;426;53;4;2883;27309;5;3003;209;49;5;4458;65815;4;2421;1975;385;616;52;6;3377;49934;4;1789;1690;531;512;50;7;3496;35736;4;3672;423;46;8;3516;35869;4;3697;426;46;9;1924;19915;4;2035;470;49
27.05.18;17:15:00;1;205;6135;0;2;3679;28727;4;3885;355;60;3;2381;19048;4;2508;430;54;4;3112;27070;5;3242;208;49;5;4879;65442;4;2641;2169;382;604;52;6;3680;49652;4;1918;1836;529;511;50;7;3653;35444;4;3841;420;46;8;3679;35576;4;3861;418;46;9;2016;19754;4;2133;467;49
27.05.18;17:10:00;1;290;6117;0;2;3785;28421;4;4000;353;60;3;2477;18850;4;2606;433;53;4;3217;26811;5;3351;207;50;5;5149;65036;4;2804;2292;382;600;52;6;3920;49343;4;2027;1967;526;512;50;7;3887;35141;4;4084;415;46;8;3904;35271;4;4095;414;46;9;2143;19587;4;2268;461;49
27.05.18;17:05:00;1;355;6092;0;2;3735;28106;4;3943;355;60;3;2433;18644;4;2564;438;53;4;3172;26542;5;3304;206;50;5;5186;64605;4;2825;2312;379;603;52;6;4011;49014;4;2061;2017;528;514;50;7;3814;34818;4;4015;414;46;8;3839;34946;4;4028;418;46;9;2115;19409;4;2237;458;49
27.05.18;17:00:00;1;368;6062;0;2;3926;27792;4;4148;357;60;3;2581;18440;4;2712;433;53;4;3371;26277;5;3512;206;49;5;5555;64168;4;3040;2479;380;597;51;6;4281;48681;4;2227;2142;524;515;50;7;4075;34497;4;4278;412;46;8;4090;34624;4;4290;414;46;9;2241;19231;4;2365;462;49
27.05.18;16:55:00;1;372;6032;0;2;3910;27468;4;4130;352;59;3;2523;18225;4;2655;424;52;4;3327;25996;5;3465;208;48;5;5549;63708;4;3036;2471;379;612;51;6;4272;48327;4;2228;2158;531;515;50;7;4093;34158;4;4299;418;46;8;4111;34283;4;4314;420;46;9;2271;19044;4;2398;469;49
27.05.18;16:50:00;1;403;6000;0;2;3486;27140;4;3684;354;58;3;2251;18013;4;2377;448;52;4;2949;25717;5;3072;210;48;5;4950;63243;4;2696;2201;383;606;51;6;3841;47970;4;2001;1945;531;512;51;7;3694;33817;4;3882;410;46;8;3666;33940;4;3850;417;46;9;2017;18855;4;2135;459;49
27.05.18;16:45:00;1;330;5972;0;2;3387;26848;4;3578;356;58;3;2222;17824;4;2342;435;52;4;2935;25470;5;3058;208;48;5;5018;62828;4;2732;2234;378;604;51;6;3783;47652;4;1968;1899;528;507;51;7;3618;33507;4;3798;425;47;8;3589;33632;4;3768;423;46;9;1988;18685;4;2099;469;50
27.05.18;16:40:00;1;312;5945;0;2;3504;26565;4;3702;357;58;3;2400;17638;4;2524;434;52;4;3104;25224;5;3234;207;49;5;5247;62406;4;2864;2341;378;598;51;6;3896;47331;4;2057;1950;523;500;51;7;3805;33203;4;4001;406;47;8;3856;33330;4;4054;410;47;9;2125;18518;4;2245;461;50
27.05.18;16:35:00;1;249;5919;0;2;4046;26273;4;4271;356;59;3;2724;17438;4;2864;433;52;4;3570;24965;5;3719;204;49;5;6206;61971;4;3400;2777;380;598;51;6;4718;47001;4;2473;2364;523;509;51;7;4473;32885;4;4697;414;47;8;4461;33009;4;4680;410;47;9;2452;18341;4;2586;461;50
27.05.18;16:30:00;1;248;5898;0;2;4058;25943;4;4286;355;59;3;2723;17216;4;2863;437;52;4;3579;24675;5;3727;207;49;5;6315;61442;4;3463;2819;380;603;51;6;4812;46603;4;2523;2419;527;508;51;7;4538;32517;4;4768;412;47;8;4550;32641;4;4772;410;47;9;2518;18139;4;2656;458;50
27.05.18;16:25:00;1;248;5877;0;2;3573;25603;4;3772;355;59;3;2389;16988;4;2516;445;52;4;3099;24375;5;3228;207;49;5;5465;60920;4;2980;2442;382;603;51;6;4205;46205;4;2194;2121;531;508;51;7;3892;32138;4;4088;411;47;8;3874;32261;4;4072;424;47;9;2147;17929;4;2271;470;50
27.05.18;16:20:00;1;263;5857;0;2;4161;25299;4;4398;355;59;3;2780;16786;4;2924;437;52;4;3636;24114;5;3787;204;50;5;6476;60454;4;3561;2900;378;600;51;6;4897;45851;4;2537;2474;530;510;51;7;4399;31808;4;4619;406;47;8;4410;31935;4;4633;413;47;9;2442;17749;4;2578;457;50
27.05.18;16:15:00;1;291;5834;0;2;4305;24956;4;4546;352;59;3;2870;16556;4;3021;440;52;4;3782;23813;5;3939;205;49;5;6824;59913;4;3769;3053;378;603;51;6;5185;45441;4;2699;2611;524;505;51;7;4641;31445;4;4875;407;47;8;4670;31570;4;4897;410;47;9;2594;17547;4;2734;459;50
27.05.18;16:10:00;1;323;5810;0;2;4270;24596;4;4513;353;59;3;2870;16317;4;3019;438;52;4;3796;23497;5;3955;204;49;5;6899;59345;4;3808;3093;375;591;51;6;5260;45009;4;2736;2637;524;509;51;7;4722;31058;4;4956;402;47;8;4738;31181;4;4975;408;47;9;2636;17331;4;2776;451;50
27.05.18;16:05:00;1;333;5783;0;2;4094;24241;4;4323;355;58;3;2777;16078;4;2920;437;51;4;3683;23182;5;3836;201;49;5;6745;58770;4;3714;3031;371;597;51;6;5146;44571;4;2664;2591;516;508;51;7;4625;30665;4;4868;411;47;8;4655;30786;4;4884;408;47;9;2577;17111;4;2717;457;50
27.05.18;16:00:00;1;300;5755;0;2;4050;23899;4;4281;353;58;3;2736;15847;4;2875;428;51;4;3617;22875;5;3767;203;49;5;6660;58209;4;3655;2985;373;593;51;6;5059;44143;4;2644;2558;520;504;51;7;4513;30279;4;4741;404;46;8;4558;30398;4;4779;408;47;9;2526;16897;4;2659;445;50
27.05.18;15:55:00;1;305;5730;0;2;4072;23561;4;4295;354;58;3;2753;15619;4;2894;427;51;4;3670;22573;5;3823;203;49;5;6824;57655;4;3764;3058;368;597;51;6;5208;43721;4;2705;2625;520;501;50;7;4593;29903;4;4814;404;47;8;4598;30017;4;4832;409;46;9;2561;16686;4;2697;449;50
27.05.18;15:50:00;1;303;5705;0;2;4286;23222;4;4526;354;58;3;2901;15389;4;3048;434;51;4;3890;22267;5;4052;204;49;5;7267;57080;4;4011;3262;371;591;51;6;5533;43283;4;2884;2767;513;505;50;7;4843;29519;4;5085;403;46;8;4904;29633;4;5143;408;46;9;2730;16472;4;2877;455;50
27.05.18;15:45:00;1;275;5679;0;2;4193;22864;4;4424;356;57;3;2804;15147;4;2952;443;50;4;3779;21941;5;3937;205;49;5;7163;56477;4;3949;3207;374;597;51;6;5453;42826;4;2848;2758;525;505;50;7;4878;29114;4;5113;399;46;8;4948;29223;4;5192;409;46;9;2754;16244;4;2901;457;49
27.05.18;15:40:00;1;250;5656;0;2;3491;22517;4;3687;359;57;3;2342;14915;4;2467;432;50;4;3162;21628;5;3293;206;49;5;5996;55898;4;3291;2678;373;593;50;6;4542;42383;4;2369;2295;517;509;50;7;4022;28711;4;4229;408;46;8;4049;28813;4;4252;412;46;9;2258;16016;4;2383;461;49
27.05.18;15:35:00;1;250;5635;0;2;3580;22227;4;3779;355;57;3;2347;14720;4;2472;427;50;4;2881;21367;5;3001;204;49;5;5453;55402;4;2979;2436;371;592;50;6;4173;42006;4;2186;2122;524;500;50;7;3457;28374;4;3631;390;46;8;3769;28476;4;3952;401;46;9;2157;15827;4;2271;437;49
27.05.18;15:30:00;1;286;5614;0;2;4113;21921;4;4343;355;58;3;2776;14520;4;2917;433;51;4;3704;21123;5;3859;203;50;5;7123;54892;4;3944;3194;370;593;50;6;5476;41616;4;2826;2739;518;504;50;7;4713;28087;4;4942;402;46;8;4735;28156;4;4974;412;46;9;2638;15642;4;2780;451;50
27.05.18;15:25:00;1;294;5591;0;2;4019;21580;4;4238;354;57;3;2719;14289;4;2856;433;51;4;3624;20815;5;3775;201;50;5;7031;54299;4;3885;3155;368;590;50;6;5476;41163;4;2864;2748;512;508;50;7;4630;27696;4;4863;404;46;8;4631;27761;4;4858;403;46;9;2592;15423;4;2728;443;50